• In Russia
  • List of Countries
  • For 7 days
  • Water Temperature
  • Satellite Maps
  • Weather Map
  • Weather Widgets
  • user-avatar
    Login

    Hourly Weather Durres

    Today, 20 September, Wednesday

    Time Temperature Precipitation Wind Pressure Humidity
    00:00 +20°C° 0.1 mm 5 mps 756 mmHg 66%
    01:00 +20°C° 0.1 mm 5 mps 756 mmHg 65%
    02:00 +19°C° 0.1 mm 5 mps 756 mmHg 69%
    03:00 +19°C° 0.1 mm 6 mps 756 mmHg 73%
    04:00 +19°C° 0.1 mm 6 mps 756 mmHg 78%
    05:00 +19°C° 0.2 mm 5 mps 756 mmHg 78%
    06:00 +20°C° 0.2 mm 4 mps 756 mmHg 78%
    07:00 +20°C° 0.2 mm 4 mps 756 mmHg 78%
    08:00 +21°C° 0.1 mm 4 mps 756 mmHg 69%
    09:00 +22°C° 0.1 mm 4 mps 756 mmHg 61%
    10:00 +25°C° 0.1 mm 4 mps 756 mmHg 52%
    11:00 +25°C° 0.5 mm 4 mps 756 mmHg 51%
    12:00 +25°C° 0.5 mm 5 mps 756 mmHg 50%
    13:00 +25°C° 0.5 mm 5 mps 756 mmHg 48%
    14:00 +23°C° 1 mm 5 mps 756 mmHg 53%
    15:00 +22°C° 1 mm 5 mps 756 mmHg 57%
    16:00 +21°C° 1 mm 5 mps 756 mmHg 61%
    17:00 +20°C° 0.2 mm 4 mps 757 mmHg 67%
    18:00 +18°C° 0.2 mm 4 mps 757 mmHg 73%
    19:00 +17°C° 0.2 mm 3 mps 758 mmHg 80%
    20:00 +17°C° 0.8 mm 3 mps 758 mmHg 81%
    21:00 +15°C° 0.8 mm 4 mps 758 mmHg 82%
    22:00 +15°C° 0.8 mm 4 mps 758 mmHg 84%
    23:00 +15°C° 0.8 mm 4 mps 759 mmHg 85%

    Tomorrow, 21 September, Thursday

    Time Temperature Precipitation Wind Pressure Humidity
    00:00 +15°C° 0.8 mm 4 mps 759 mmHg 85%
    01:00 +15°C° 0.8 mm 4 mps 759 mmHg 86%
    02:00 +15°C° 0.8 mm 4 mps 759 mmHg 87%
    03:00 +14°C° 0.8 mm 4 mps 759 mmHg 87%
    04:00 +14°C° 0.8 mm 4 mps 759 mmHg 87%
    05:00 +15°C° 0.6 mm 4 mps 759 mmHg 85%
    06:00 +17°C° 0.6 mm 4 mps 759 mmHg 84%
    07:00 +17°C° 0.6 mm 4 mps 759 mmHg 82%
    08:00 +18°C° 0.2 mm 4 mps 759 mmHg 75%
    09:00 +19°C° 0.2 mm 5 mps 760 mmHg 69%
    10:00 +20°C° 0.2 mm 5 mps 760 mmHg 62%
    11:00 +21°C° 0 mm 5 mps 760 mmHg 58%
    12:00 +22°C° 0 mm 6 mps 760 mmHg 53%
    13:00 +22°C° 0 mm 6 mps 760 mmHg 49%
    14:00 +22°C° 0 mm 7 mps 760 mmHg 50%
    15:00 +21°C° 0 mm 7 mps 760 mmHg 52%
    16:00 +21°C° 0 mm 8 mps 760 mmHg 53%
    17:00 +18°C° 0.2 mm 7 mps 760 mmHg 60%
    18:00 +17°C° 0.2 mm 7 mps 761 mmHg 67%
    19:00 +15°C° 0.2 mm 7 mps 761 mmHg 74%
    20:00 +15°C° 0.2 mm 6 mps 762 mmHg 76%
    21:00 +14°C° 0.2 mm 6 mps 762 mmHg 78%
    22:00 +14°C° 0.2 mm 5 mps 762 mmHg 79%
    23:00 +14°C° 0 mm 5 mps 762 mmHg 79%

    Day after tomorrow, 22 September, Friday

    Time Temperature Precipitation Wind Pressure Humidity
    00:00 +13°C° 0 mm 5 mps 763 mmHg 79%
    01:00 +13°C° 0 mm 4 mps 763 mmHg 78%
    02:00 +13°C° 0 mm 4 mps 763 mmHg 77%
    03:00 +13°C° 0 mm 3 mps 763 mmHg 75%
    04:00 +13°C° 0 mm 3 mps 763 mmHg 74%
    05:00 +13°C° 0 mm 3 mps 763 mmHg 70%
    06:00 +14°C° 0 mm 3 mps 763 mmHg 66%
    07:00 +16°C° 0 mm 3 mps 763 mmHg 62%
    08:00 +18°C° 0 mm 3 mps 763 mmHg 54%
    09:00 +20°C° 0 mm 2 mps 763 mmHg 47%
    10:00 +21°C° 0 mm 2 mps 764 mmHg 40%
    11:00 +22°C° 0 mm 3 mps 763 mmHg 39%
    12:00 +24°C° 0 mm 3 mps 763 mmHg 37%
    13:00 +23°C° 0 mm 4 mps 763 mmHg 36%
    14:00 +23°C° 0 mm 4 mps 763 mmHg 39%
    15:00 +22°C° 0 mm 5 mps 763 mmHg 43%
    16:00 +22°C° 0 mm 5 mps 763 mmHg 46%
    17:00 +20°C° 0 mm 4 mps 764 mmHg 53%
    18:00 +18°C° 0 mm 4 mps 764 mmHg 60%
    19:00 +16°C° 0 mm 3 mps 764 mmHg 67%
    20:00 +16°C° 0 mm 3 mps 765 mmHg 67%
    21:00 +16°C° 0 mm 3 mps 765 mmHg 67%
    22:00 +16°C° 0 mm 3 mps 765 mmHg 67%
    23:00 +15°C° 0 mm 2 mps 765 mmHg 66%

    23 September, Saturday

    Time Temperature Precipitation Wind Pressure Humidity
    00:00 +15°C° 0 mm 2 mps 765 mmHg 65%
    01:00 +15°C° 0 mm 2 mps 765 mmHg 64%
    02:00 +15°C° 0 mm 2 mps 765 mmHg 63%
    03:00 +15°C° 0 mm 2 mps 765 mmHg 62%
    04:00 +15°C° 0 mm 2 mps 765 mmHg 62%
    05:00 +16°C° 0 mm 2 mps 765 mmHg 59%
    06:00 +16°C° 0 mm 2 mps 765 mmHg 56%
    07:00 +17°C° 0 mm 2 mps 765 mmHg 54%
    08:00 +20°C° 0 mm 2 mps 765 mmHg 47%
    09:00 +23°C° 0 mm 2 mps 764 mmHg 41%
    10:00 +25°C° 0 mm 2 mps 764 mmHg 35%
    11:00 +25°C° 0 mm 2 mps 764 mmHg 34%
    12:00 +26°C° 0 mm 2 mps 764 mmHg 33%
    13:00 +27°C° 0 mm 3 mps 763 mmHg 32%
    14:00 +26°C° 0 mm 3 mps 763 mmHg 36%
    15:00 +25°C° 0 mm 3 mps 763 mmHg 39%
    16:00 +23°C° 0 mm 4 mps 763 mmHg 42%
    17:00 +21°C° 0 mm 4 mps 763 mmHg 50%
    18:00 +20°C° 0 mm 3 mps 763 mmHg 58%
    19:00 +18°C° 0 mm 3 mps 764 mmHg 66%
    20:00 +17°C° 0 mm 3 mps 764 mmHg 65%
    21:00 +17°C° 0 mm 2 mps 764 mmHg 64%
    22:00 +17°C° 0 mm 2 mps 764 mmHg 62%
    23:00 +17°C° 0 mm 2 mps 763 mmHg 61%

    24 September, Sunday

    Time Temperature Precipitation Wind Pressure Humidity
    00:00 +17°C° 0 mm 2 mps 763 mmHg 59%
    01:00 +16°C° 0 mm 2 mps 763 mmHg 57%
    02:00 +16°C° 0 mm 2 mps 763 mmHg 56%
    03:00 +16°C° 0 mm 2 mps 763 mmHg 56%
    04:00 +16°C° 0 mm 2 mps 762 mmHg 55%
    05:00 +17°C° 0 mm 2 mps 762 mmHg 54%
    06:00 +18°C° 0 mm 2 mps 762 mmHg 52%
    07:00 +18°C° 0 mm 2 mps 762 mmHg 51%
    08:00 +21°C° 0 mm 2 mps 762 mmHg 45%
    09:00 +24°C° 0 mm 2 mps 762 mmHg 40%
    10:00 +26°C° 0 mm 1 mps 762 mmHg 34%
    11:00 +27°C° 0 mm 2 mps 762 mmHg 34%
    12:00 +27°C° 0 mm 2 mps 761 mmHg 34%
    13:00 +28°C° 0 mm 3 mps 761 mmHg 33%
    14:00 +27°C° 0 mm 3 mps 761 mmHg 36%
    15:00 +26°C° 0 mm 3 mps 761 mmHg 40%
    16:00 +26°C° 0 mm 4 mps 761 mmHg 43%
    17:00 +24°C° 0 mm 3 mps 761 mmHg 50%
    18:00 +21°C° 0 mm 3 mps 761 mmHg 57%
    19:00 +19°C° 0 mm 3 mps 761 mmHg 64%
    20:00 +19°C° 0 mm 3 mps 762 mmHg 62%
    21:00 +19°C° 0 mm 2 mps 762 mmHg 60%
    22:00 +18°C° 0 mm 2 mps 762 mmHg 58%
    23:00 +18°C° 0 mm 2 mps 762 mmHg 57%

    25 September, Monday

    Time Temperature Precipitation Wind Pressure Humidity
    00:00 +18°C° 0 mm 2 mps 762 mmHg 55%
    01:00 +18°C° 0 mm 2 mps 762 mmHg 54%
    02:00 +17°C° 0 mm 2 mps 762 mmHg 53%
    03:00 +17°C° 0 mm 3 mps 761 mmHg 53%
    04:00 +17°C° 0 mm 3 mps 761 mmHg 52%
    05:00 +18°C° 0 mm 3 mps 761 mmHg 51%
    06:00 +19°C° 0 mm 3 mps 761 mmHg 51%
    07:00 +19°C° 0 mm 2 mps 761 mmHg 50%
    08:00 +23°C° 0 mm 2 mps 761 mmHg 45%
    09:00 +25°C° 0 mm 2 mps 761 mmHg 39%
    10:00 +27°C° 0 mm 2 mps 761 mmHg 33%
    11:00 +28°C° 0 mm 2 mps 761 mmHg 32%
    12:00 +28°C° 0 mm 3 mps 761 mmHg 31%
    13:00 +29°C° 0 mm 3 mps 760 mmHg 30%
    14:00 +28°C° 0 mm 4 mps 760 mmHg 33%
    15:00 +27°C° 0 mm 4 mps 760 mmHg 36%
    16:00 +27°C° 0 mm 5 mps 760 mmHg 39%
    17:00 +25°C° 0 mm 4 mps 761 mmHg 45%
    18:00 +22°C° 0 mm 4 mps 761 mmHg 50%
    19:00 +21°C° 0 mm 4 mps 761 mmHg 56%
    20:00 +20°C° 0 mm 4 mps 761 mmHg 56%
    21:00 +20°C° 0 mm 3 mps 761 mmHg 57%
    22:00 +20°C° 0 mm 3 mps 761 mmHg 57%
    23:00 +20°C° 0 mm 3 mps 761 mmHg 58%
    Show more